TITAN 3C TRANSTAGE DEB, 2789

Orbit data source: Space-Track

TITAN 3C TRANSTAGE DEB, 2789 is space debris in LEO originally from a launch on Fri, 15 Oct 1965 UTC launched from the Air Force Eastern Test Range (AFETR). Debris objects in space refer to the collection of defunct objects orbiting the Earth. Examples of debris include non-operational satellites, rocket bodies, and fragments generated from explosions, collisions, or faulty payload assembly.

Loading next visibility...
TITAN 3C TRANSTAGE DEB details
Identifier
2789, 1965-082KR
Orbit
LEO
Last TLE update16 hours ago
Origin
Flag of USUSAF SSD (US)
ManufacturerUnknown
MissionSpacecraft
Bus & MotorUnknown
MassUnknown
Launch date (UTC)
1965-10-15 (59 years ago)
Launch vehicleUnknown
Launch site
Air Force Eastern Test Range (AFETR)
Object type
Payload
Rocket body
Debris
Shape & HBRUnknown
Radar Cross SectionSmall (<0.1 m²)

Expand to show TLE details & history

TLE from 16 hours ago
0 TITAN 3C TRANSTAGE DEB
1 02789U 65082KR  25044.13754799  .00051610  00000-0  33720-2 0  9997
2 02789  32.2770 339.7444 0051440 300.4476  59.1109 15.05580678  6849
Epoch: 2025-02-13T03:18Z
Definitive object data (Epoch: 2025-02-13T03:18:04.146Z)
Latitude-0.00004°
Longitude146.80908°
Altitude530.207 km
Speed7.61 km/s
True Right ascension22h 38m 58s
True Declination0° 00' 00"
Sunlit
Object was in daylight at TLE epoch
Visualization TLE readout
Latitude26.74222°
Longitude-90.03013°
Altitude583.961 km
Speed7.554 km/s
Apparent Right ascension08h 23m 06s
Apparent Declination-5° 27' 40"
Sunlit
Object is in full shadow
Visualization observer readout
Local Sidereal Time22:21:24
Azimuth45.518° ENE
Elevation-46.476°
Doppler factor1
Orbital elements
Apogee altitude589.023 km
Perigee altitude517.712 km
Semi-major axis6,931.504 km
Eccentricity0.005144
Inclination32.277°
RAAN339.7444°
Arg. of periapsis300.4476°
True anomaly59.61842°
Mean anomaly59.1109°
Eccentric anomaly59.36449°
Mean motion3.76099 °/min
BSTAR0.003372
Orbital period95.72 mins
Loading maneuver chart data...

TITAN 3C TRANSTAGE DEB Visibility forecast

Observer location: undefined°, undefined

Span
Click to sort rows by Start time (UTC) header in descending order
Start Az.
Max El. time (UTC)
Max El. Az.
Max El.
End time (UTC)
End Az.
4 mins2025-02-14 00:17:30.235Z197.991° SSW2025-02-14 00:18:30.235Z178.251° S21.596°2025-02-14 00:21:30.235Z123.319° SE
5 mins2025-02-14 01:57:30.235Z227.989° WSW2025-02-14 01:59:30.235Z187.299° SSW25.746°2025-02-14 02:02:30.235Z130.406° SE
4 mins2025-02-14 03:38:30.235Z227.916° WSW2025-02-14 03:40:30.235Z194.193° SSW17.888°2025-02-14 03:42:30.235Z162.218° S
|